Location: Dehesa de la Cepeda
(40.6574°N, 4.3013°W)
Time: 19:35:46
(UTC+00:00)

Explorer 7 - Pass Details

Date: 10 August 2021
Orbit: 484 x 676 km, 50.3° (Epoch: 17 September)

Event Time Altitude Azimuth Distance (km) Brightness Sun altitude
Exits shadow 04:12:45 - 294° (WNW) 2,084 9.5 -12.6°
Reaches altitude 10° 04:14:03 10° 305° (NW) 1,672 9.1 -12.4°
Maximum altitude 04:16:52 20° 354° (N) 1,198 8.9 -12.0°
Drops below altitude 10° 04:19:45 10° 43° (NE) 1,710 10.7 -11.5°
Sets 04:22:27 0° 61° (ENE) 2,623 12.5 -11.1°
